Location: Cran-Gévrier
(45.9039°N, 6.1012°E)
Time: 20:04:08
(UTC+00:00)

Cosmos 1758 Rocket - Pass Details

Date: 09 February 2023
Orbit: 601 x 634 km, 82.5° (Epoch: 23 March)

Event Time Altitude Azimuth Distance (km) Brightness Sun altitude
Rises 19:02:33 0° 198° (SSW) 2,852 7.2 -23.0°
Reaches altitude 10° 19:04:46 10° 203° (SSW) 1,957 6.3 -23.4°
Maximum altitude 19:09:02 56° 282° (WNW) 736 4.2 -24.1°
Drops below altitude 10° 19:13:22 10° 1° (N) 1,993 6.2 -24.9°
Sets 19:15:40 0° 6° (N) 2,909 7.0 -25.3°
